sat.trackr.live / text

‹ back to catalog

STARLINK-34250

NORAD 64690 · 2025-139AC

PAYLOAD ACTIVE UNKNOWN

§ Identity

Operator
Country
US
Launch date
2025-06-28
Launch site
AFETR
Launch vehicle
Mass (kg)
RCS (m²)

Purposes: comms

External: N2YO · Heavens-Above · Gunter

§ Orbital elements

Epoch: 2026-05-25T02:34:33.066624Z

Period
93.85 min
Inclination
53.1577°
Eccentricity
0.0001137
Mean motion
15.34406245 rev/d
Perigee alt
461.9 km
Apogee alt
463.5 km
Semi-major
6,840.8 km
B*
7.3133e-4
RAAN
131.3935°
Arg perigee
93.7672°
Mean anomaly
266.3461°
Rev number
5,199

§ Raw data

STARLINK-342501 64690U 25139AC  26145.10732716  .00024418  00000+0  73133-3 0  99982 64690  53.1577 131.3935 0001137  93.7672 266.3461 15.34406245 51992

JSON: /api/v1/satellites/64690 · /tle

For live sub-satellite position, see the globe view (requires WebGL).

§ Visibility from observer

Set your observer location to see the next 7 days of passes ≥ 10°. The values pass through the URL so the page stays shareable.

No JS? Fill the form by hand. The geolocation button needs JavaScript.